User: anonymous   Login
Location: Chervonnoye
(48.6000°N, 34.4000°E)
Time: 19:27:21
(UTC+00:00)
Language:

KKS-1 - Orbit

View from above orbital plane
View from above orbital plane
View from above satellite
View from above satellite

Ground track
Ground track

The orbit data is extracted from the following two-line orbital elements,

1 33499U 09002H   21341.44256056  .00000221  00000-0  40162-4 0  9994
2 33499  98.2421 215.0127 0008447 201.6730 158.4122 14.75750033692359
Epoch (UTC): 07 December 2021 10:37:17
Eccentricity: 0.0008447
inclination: 98.2421°
perigee height: 637 km
apogee height: 649 km
right ascension of ascending node: 215.0127°
argument of perigee: 201.6730°
revolutions per day: 14.75750033
mean anomaly at epoch: 158.4122°
orbit number at epoch: 69235

The dashed part of the orbit path shows where the satellite is in the earth's shadow,  

DLR